KC4BAM Weather Reports


time (UTC)temp
C
wind
direction
speed
KPH
gust
KPH
rain 1hr
cm
rain 24hr
cm
rain mn
cm
humidity
%
barometer
mb
20260906003709 31 192 0.0 0.0 0.00 0.00 0.00 63 1001.6
20260906003205 31 192 0.0 0.0 0.00 0.00 0.00 62 1001.7
20260906002705 32 191 0.0 0.0 0.00 0.00 0.00 61 1001.5
20260906002200 32 193 0.0 0.0 0.00 0.00 0.00 61 1001.4
20260906001655 32 193 0.0 0.0 0.00 0.00 0.00 59 1001.4
20260906001150 32 192 0.0 1.6 0.00 0.00 0.00 59 1001.7
20260906000646 32 194 0.0 0.0 0.00 0.00 0.00 59 1001.5
20260906000141 32 193 0.0 0.0 0.00 0.00 0.00 59 1001.5
20260905235640 32 193 0.0 0.0 0.00 0.00 0.00 58 1001.5
20260905235135 32 183 0.0 1.6 0.00 0.00 0.00 58 1001.3
20260905234630 32 193 0.0 0.0 0.00 0.00 0.00 58 1001.4
20260905234126 33 193 0.0 0.0 0.00 0.00 0.00 58 1001.5
20260905233626 33 191 0.0 0.0 0.00 0.00 0.00 57 1001.3
20260905233120 33 189 0.0 1.6 0.00 0.00 0.00 57 1001.4
20260905232615 33 193 0.0 1.6 0.00 0.00 0.00 57 1001.4
20260905232111 34 193 0.0 0.0 0.00 0.00 0.00 57 1001.5
20260905231606 34 189 0.0 1.6 0.00 0.00 0.00 56 1001.4
20260905231102 35 195 0.0 0.0 0.00 0.00 0.00 54 1001.5
20260905230602 35 193 0.0 0.0 0.00 0.00 0.00 55 1001.4
20260905225600 35 189 0.0 0.0 0.00 0.00 0.00 54 1001.4
20260905225055 35 201 1.6 1.6 0.00 0.00 0.00 53 1001.3
20260905224555 36 194 0.0 1.6 0.00 0.00 0.00 53 1001.3
20260905224055 36 196 1.6 4.8 0.00 0.00 0.00 52 1001.3
20260905223553 35 225 6.4 9.7 0.00 0.00 0.00 53 1001.4
20260905223048 35 198 0.0 1.6 0.00 0.00 0.00 53 1001.3
20260905222542 36 190 0.0 0.0 0.00 0.00 0.00 52 1001.2
20260905222038 36 191 0.0 0.0 0.00 0.00 0.00 52 1001.0
20260905221534 36 195 0.0 1.6 0.00 0.00 0.00 51 1001.4
20260905221030 36 197 1.6 12.9 0.00 0.00 0.00 49 1001.3
20260905220525 37 219 3.2 4.8 0.00 0.00 0.00 50 1001.4
20260905220021 36 236 1.6 4.8 0.00 0.00 0.00 48 1001.4
20260905215515 36 195 0.0 1.6 0.00 0.00 0.00 51 1001.3
20260905215012 37 193 0.0 1.6 0.00 0.00 0.00 48 1001.3
20260905214508 37 197 0.0 6.4 0.00 0.00 0.00 46 1001.4
20260905214008 37 212 3.2 9.7 0.00 0.00 0.00 46 1001.3
20260905213504 38 188 1.6 3.2 0.00 0.00 0.00 46 1001.5
20260905213004 38 197 0.0 3.2 0.00 0.00 0.00 44 1001.5
20260905212459 38 207 3.2 6.4 0.00 0.00 0.00 44 1001.4
20260905211958 38 192 0.0 1.6 0.00 0.00 0.00 46 1001.4
20260905211453 38 206 3.2 6.4 0.00 0.00 0.00 43 1001.4
20260905210949 38 200 1.6 1.6 0.00 0.00 0.00 45 1001.5
20260905210444 38 192 1.6 3.2 0.00 0.00 0.00 45 1001.7
20260905205944 38 195 0.0 1.6 0.00 0.00 0.00 44 1001.6
20260905205439 38 222 3.2 4.8 0.00 0.00 0.00 43 1001.5
20260905204937 38 194 3.2 6.4 0.00 0.00 0.00 43 1001.6
20260905204433 38 211 6.4 9.7 0.00 0.00 0.00 44 1001.8
20260905203932 38 209 1.6 4.8 0.00 0.00 0.00 44 1001.8
20260905203428 38 198 3.2 9.7 0.00 0.00 0.00 44 1002.0
20260905202923 38 199 3.2 4.8 0.00 0.00 0.00 44 1002.0
20260905202419 38 202 1.6 3.2 0.00 0.00 0.00 43 1002.2
20260905201914 37 234 3.2 4.8 0.00 0.00 0.00 45 1002.3
20260905201409 38 201 1.6 1.6 0.00 0.00 0.00 47 1002.4
20260905200904 38 205 6.4 6.4 0.00 0.00 0.00 44 1002.6
20260905200400 38 245 3.2 6.4 0.00 0.00 0.00 45 1002.4
20260905195857 38 217 8.0 11.3 0.00 0.00 0.00 45 1002.7
20260905195353 37 227 3.2 11.3 0.00 0.00 0.00 45 1002.7
20260905194849 37 175 6.4 9.7 0.00 0.00 0.00 45 1002.7
20260905194348 37 228 6.4 6.4 0.00 0.00 0.00 45 1002.6
20260905193847 37 199 6.4 16.1 0.00 0.00 0.00 46 1002.7
20260905193342 38 198 8.0 9.7 0.00 0.00 0.00 45 1002.7
20260905192838 38 200 3.2 6.4 0.00 0.00 0.00 45 1002.8
20260905192334 38 214 4.8 6.4 0.00 0.00 0.00 45 1002.8
20260905191833 38 200 3.2 6.4 0.00 0.00 0.00 44 1003.1
20260905191332 37 194 0.0 1.6 0.00 0.00 0.00 47 1003.2
20260905190831 38 197 0.0 3.2 0.00 0.00 0.00 47 1003.2
20260905190325 37 197 1.6 3.2 0.00 0.00 0.00 47 1003.3
20260905185823 36 197 1.6 6.4 0.00 0.00 0.00 50 1003.2
20260905185319 35 197 0.0 1.6 0.00 0.00 0.00 54 1003.2
20260905184812 36 204 1.6 3.2 0.00 0.00 0.00 51 1003.4
20260905184311 36 198 0.0 1.6 0.00 0.00 0.00 48 1003.3
20260905183810 36 196 3.2 6.4 0.00 0.00 0.00 47 1003.5
20260905183306 37 191 0.0 1.6 0.00 0.00 0.00 47 1003.4
20260905182800 36 192 0.0 3.2 0.00 0.00 0.00 48 1003.6
20260905182300 36 160 1.6 3.2 0.00 0.00 0.00 49 1003.6
20260905181755 36 187 0.0 4.8 0.00 0.00 0.00 49 1003.7
20260905181254 36 192 0.0 0.0 0.00 0.00 0.00 51 1003.8
20260905180749 35 194 0.0 0.0 0.00 0.00 0.00 51 1004.0
20260905180244 36 191 0.0 1.6 0.00 0.00 0.00 50 1004.1
20260905175744 37 195 0.0 0.0 0.00 0.00 0.00 48 1004.1
20260905175239 37 196 0.0 1.6 0.00 0.00 0.00 46 1004.1
20260905174734 37 196 1.6 1.6 0.00 0.00 0.00 47 1004.2
20260905174230 37 198 0.0 1.6 0.00 0.00 0.00 47 1004.2
20260905173726 37 198 0.0 3.2 0.00 0.00 0.00 47 1004.1
20260905173221 37 197 3.2 6.4 0.00 0.00 0.00 47 1004.1
20260905172721 37 192 0.0 1.6 0.00 0.00 0.00 49 1004.0
20260905172215 37 201 1.6 3.2 0.00 0.00 0.00 50 1004.1
20260905171711 36 191 0.0 1.6 0.00 0.00 0.00 50 1004.2
20260905171207 36 209 1.6 4.8 0.00 0.00 0.00 48 1004.4
20260905170704 37 198 0.0 3.2 0.00 0.00 0.00 50 1004.6
20260905170203 37 225 4.8 4.8 0.00 0.00 0.00 49 1004.5
20260905165658 36 194 3.2 4.8 0.00 0.00 0.00 50 1004.5
20260905165153 36 198 1.6 3.2 0.00 0.00 0.00 49 1004.6
20260905164648 36 194 0.0 1.6 0.00 0.00 0.00 51 1004.7
20260905164147 36 186 0.0 1.6 0.00 0.00 0.00 51 1004.8
20260905163643 36 190 1.6 4.8 0.00 0.00 0.00 50 1004.7
20260905163140 36 198 3.2 4.8 0.00 0.00 0.00 51 1004.8
20260905162636 36 214 1.6 3.2 0.00 0.00 0.00 53 1004.7
20260905162135 35 193 3.2 11.3 0.00 0.00 0.00 52 1004.9
20260905161634 36 189 1.6 4.8 0.00 0.00 0.00 50 1004.8
20260905161132 36 217 3.2 11.3 0.00 0.00 0.00 52 1004.8
20260905160626 36 196 0.0 1.6 0.00 0.00 0.00 54 1004.9
20260905160121 36 201 1.6 6.4 0.00 0.00 0.00 55 1004.8
20260905155615 36 192 1.6 3.2 0.00 0.00 0.00 53 1004.7
20260905155114 36 198 1.6 3.2 0.00 0.00 0.00 54 1005.0
20260905154608 35 182 0.0 0.0 0.00 0.00 0.00 56 1005.0
20260905154104 35 204 1.6 1.6 0.00 0.00 0.00 58 1005.1
20260905153600 35 194 1.6 1.6 0.00 0.00 0.00 57 1005.1
20260905153100 35 193 0.0 1.6 0.00 0.00 0.00 58 1005.1
20260905152555 35 195 0.0 1.6 0.00 0.00 0.00 58 1005.2
20260905152050 35 191 0.0 0.0 0.00 0.00 0.00 59 1005.4
20260905151545 35 200 1.6 1.6 0.00 0.00 0.00 60 1005.4
20260905151040 34 193 0.0 1.6 0.00 0.00 0.00 61 1005.3
20260905150535 34 193 0.0 1.6 0.00 0.00 0.00 61 1005.3
20260905150033 33 193 0.0 1.6 0.00 0.00 0.00 61 1005.5
20260905145526 33 189 0.0 0.0 0.00 0.00 0.00 62 1005.4
20260905145021 33 196 0.0 0.0 0.00 0.00 0.00 63 1005.4
20260905144516 33 194 1.6 3.2 0.00 0.00 0.00 63 1005.5
20260905144015 33 192 0.0 1.6 0.00 0.00 0.00 66 1005.4
20260905143514 33 177 0.0 0.0 0.00 0.00 0.00 66 1005.6
20260905143009 33 192 0.0 0.0 0.00 0.00 0.00 67 1005.4
20260905142508 32 185 0.0 0.0 0.00 0.00 0.00 69 1005.5
20260905142004 32 188 0.0 0.0 0.00 0.00 0.00 71 1005.5
20260905141503 32 189 0.0 0.0 0.00 0.00 0.00 73 1005.5
20260905141000 31 191 0.0 0.0 0.00 0.00 0.00 75 1005.3
20260905140454 31 190 0.0 0.0 0.00 0.00 0.00 75 1005.5
20260905135953 30 191 0.0 0.0 0.00 0.00 0.00 76 1005.7
20260905135449 30 194 0.0 0.0 0.00 0.00 0.00 76 1005.7
20260905134944 31 188 0.0 0.0 0.00 0.00 0.00 77 1005.5
20260905134443 31 187 0.0 0.0 0.00 0.00 0.00 76 1005.5
20260905133942 30 187 0.0 0.0 0.00 0.00 0.00 80 1005.4
20260905133437 29 186 0.0 0.0 0.00 0.00 0.00 82 1005.7
20260905132932 28 193 0.0 0.0 0.00 0.00 0.00 84 1005.7
20260905132427 28 193 0.0 0.0 0.00 0.00 0.00 86 1005.8
20260905131922 28 193 0.0 0.0 0.00 0.00 0.00 88 1005.6
20260905131418 28 192 0.0 0.0 0.00 0.00 0.00 89 1005.7
20260905130913 27 193 0.0 0.0 0.00 0.00 0.00 91 1005.4
20260905130412 27 193 0.0 0.0 0.00 0.00 0.00 92 1005.3
20260905125907 26 193 0.0 0.0 0.00 0.00 0.00 93 1005.5
20260905125407 26 193 0.0 0.0 0.00 0.00 0.00 94 1005.6
20260905124902 25 194 0.0 0.0 0.00 0.00 0.00 94 1005.6
20260905124359 25 194 0.0 0.0 0.00 0.00 0.00 94 1005.7
20260905123858 25 193 0.0 0.0 0.00 0.00 0.00 95 1005.6
20260905123355 25 193 0.0 0.0 0.00 0.00 0.00 95 1005.6
20260905122850 24 193 0.0 0.0 0.00 0.00 0.00 95 1005.6
20260905122349 24 194 0.0 0.0 0.00 0.00 0.00 95 1005.4
20260905121845 23 194 0.0 0.0 0.00 0.00 0.00 95 1005.4
20260905121341 23 194 0.0 0.0 0.00 0.00 0.00 95 1005.3
20260905120839 24 194 0.0 0.0 0.00 0.00 0.00 95 1005.4
20260905120334 23 194 0.0 0.0 0.00 0.00 0.00 96 1005.3
20260905115830 23 193 0.0 0.0 0.00 0.00 0.00 96 1005.3
20260905115329 23 193 0.0 0.0 0.00 0.00 0.00 96 1005.3
20260905114829 23 193 0.0 0.0 0.00 0.00 0.00 96 1005.1
20260905114328 23 192 0.0 0.0 0.00 0.00 0.00 95 1005.0
20260905113822 23 192 0.0 0.0 0.00 0.00 0.00 96 1005.1
20260905113318 23 192 0.0 0.0 0.00 0.00 0.00 95 1005.0
20260905112813 23 192 0.0 0.0 0.00 0.00 0.00 95 1004.8
20260905112308 23 193 0.0 0.0 0.00 0.00 0.00 95 1005.0
20260905111803 23 192 0.0 0.0 0.00 0.00 0.00 95 1005.1
20260905111303 23 193 0.0 0.0 0.00 0.00 0.00 95 1004.9
20260905110803 23 193 0.0 0.0 0.00 0.00 0.00 95 1004.7
20260905110302 23 193 0.0 0.0 0.00 0.00 0.00 95 1004.7
20260905105758 23 193 0.0 0.0 0.00 0.00 0.00 95 1004.7
20260905105256 23 193 0.0 0.0 0.00 0.00 0.00 95 1004.7
20260905104751 23 193 0.0 0.0 0.00 0.00 0.00 95 1004.5
20260905104248 23 193 0.0 0.0 0.00 0.00 0.00 95 1004.6
20260905103747 23 193 0.0 0.0 0.00 0.00 0.00 95 1004.8
20260905103243 23 194 0.0 0.0 0.00 0.00 0.00 95 1004.7
20260905102738 23 195 0.0 0.0 0.00 0.00 0.00 94 1004.6
20260905102235 23 198 0.0 0.0 0.00 0.00 0.00 94 1004.6
20260905101734 23 191 0.0 0.0 0.00 0.00 0.00 94 1004.6
20260905101232 23 191 0.0 0.0 0.00 0.00 0.00 94 1004.4
20260905100728 23 191 0.0 0.0 0.00 0.00 0.00 94 1004.4
20260905100224 24 191 0.0 0.0 0.00 0.00 0.00 94 1004.4
20260905095723 24 191 0.0 0.0 0.00 0.00 0.00 94 1004.5
20260905095217 24 191 0.0 0.0 0.00 0.00 0.00 94 1004.3
20260905094713 24 192 0.0 0.0 0.00 0.00 0.00 94 1004.4
20260905094213 24 191 0.0 0.0 0.00 0.00 0.00 94 1004.4
20260905093707 23 191 0.0 0.0 0.00 0.00 0.00 94 1004.2
20260905093203 24 191 0.0 0.0 0.00 0.00 0.00 94 1004.1
20260905092658 24 191 0.0 0.0 0.00 0.00 0.00 93 1004.1
20260905092154 24 192 0.0 0.0 0.00 0.00 0.00 93 1004.1
20260905091653 24 192 0.0 0.0 0.00 0.00 0.00 93 1004.3
20260905091153 24 192 0.0 0.0 0.00 0.00 0.00 93 1004.0
20260905090647 24 192 0.0 0.0 0.00 0.00 0.00 93 1004.1
20260905090143 24 192 0.0 0.0 0.00 0.00 0.00 93 1004.1
20260905085642 24 193 0.0 0.0 0.00 0.00 0.00 92 1004.1
20260905085137 24 193 0.0 0.0 0.00 0.00 0.00 92 1004.0
20260905084636 24 192 0.0 0.0 0.00 0.00 0.00 92 1004.1
20260905084131 24 191 0.0 0.0 0.00 0.00 0.00 92 1004.2
20260905083626 24 192 0.0 0.0 0.00 0.00 0.00 92 1004.2
20260905083123 24 191 0.0 0.0 0.00 0.00 0.00 92 1004.2
20260905082618 25 193 0.0 0.0 0.00 0.00 0.00 92 1004.2
20260905082114 25 193 0.0 0.0 0.00 0.00 0.00 92 1004.2
20260905081614 25 193 0.0 0.0 0.00 0.00 0.00 92 1004.2
20260905081109 25 193 0.0 0.0 0.00 0.00 0.00 91 1004.1
20260905080608 24 193 0.0 0.0 0.00 0.00 0.00 91 1004.3
20260905080057 24 192 0.0 0.0 0.00 0.00 0.00 91 1004.2
20260905075550 25 192 0.0 0.0 0.00 0.00 0.00 91 1004.3
20260905075044 25 192 0.0 0.0 0.00 0.00 0.00 91 1004.3
20260905074544 25 192 0.0 0.0 0.00 0.00 0.00 90 1004.2
20260905074040 25 192 0.0 0.0 0.00 0.00 0.00 90 1004.2
20260905073535 25 192 0.0 0.0 0.00 0.00 0.00 90 1004.2
20260905073031 25 192 0.0 0.0 0.00 0.00 0.00 90 1004.3
20260905072530 25 192 0.0 0.0 0.00 0.00 0.00 89 1004.2
20260905072026 25 191 0.0 0.0 0.00 0.00 0.00 89 1004.4
20260905071523 25 190 0.0 0.0 0.00 0.00 0.00 89 1004.4
20260905071022 25 190 0.0 0.0 0.00 0.00 0.00 89 1004.4
20260905070518 25 189 0.0 0.0 0.00 0.00 0.00 89 1004.4
20260905070014 25 188 0.0 0.0 0.00 0.00 0.00 89 1004.4
20260905065511 25 191 0.0 0.0 0.00 0.00 0.00 89 1004.6
20260905065007 25 192 0.0 0.0 0.00 0.00 0.00 89 1004.5
20260905064501 25 192 0.0 0.0 0.00 0.00 0.00 89 1004.4
20260905063956 25 191 0.0 0.0 0.00 0.00 0.00 89 1004.5
20260905063450 25 192 0.0 0.0 0.00 0.00 0.00 89 1004.7
20260905062947 25 191 0.0 0.0 0.00 0.00 0.00 89 1004.6
20260905062441 25 192 0.0 0.0 0.00 0.00 0.00 88 1004.7
20260905061936 25 192 0.0 0.0 0.00 0.00 0.00 88 1004.6
20260905061431 25 192 0.0 0.0 0.00 0.00 0.00 88 1004.7
20260905060930 25 192 0.0 0.0 0.00 0.00 0.00 87 1004.3
20260905060427 25 192 0.0 0.0 0.00 0.00 0.00 87 1004.5
20260905055926 25 192 0.0 0.0 0.00 0.00 0.00 87 1004.4
20260905055421 26 192 0.0 0.0 0.00 0.00 0.00 86 1004.5
20260905054920 25 192 0.0 0.0 0.00 0.00 0.00 86 1004.3
20260905054416 26 193 0.0 0.0 0.00 0.00 0.00 86 1004.4
20260905053915 26 193 0.0 0.0 0.00 0.00 0.00 85 1004.6
20260905053410 26 193 0.0 0.0 0.00 0.00 0.00 85 1004.6
20260905052906 26 193 0.0 0.0 0.00 0.00 0.00 84 1004.7
20260905052406 26 193 0.0 0.0 0.00 0.00 0.00 84 1004.7
20260905051905 26 192 0.0 0.0 0.00 0.00 0.00 84 1004.7
20260905051401 26 191 0.0 0.0 0.00 0.00 0.00 83 1004.6
20260905050858 26 193 0.0 0.0 0.00 0.00 0.00 82 1004.8
20260905050354 26 190 0.0 0.0 0.00 0.00 0.00 82 1004.7
20260905045849 26 190 0.0 0.0 0.00 0.00 0.00 82 1004.7
20260905045344 27 192 0.0 0.0 0.00 0.00 0.00 81 1004.6
20260905044839 27 192 0.0 0.0 0.00 0.00 0.00 80 1004.5
20260905044335 27 194 0.0 1.6 0.00 0.00 0.00 78 1004.6
20260905043833 28 189 0.0 1.6 0.00 0.00 0.00 77 1004.6
20260905043328 28 192 0.0 1.6 0.00 0.00 0.00 77 1004.5
20260905042822 28 197 0.0 0.0 0.00 0.00 0.00 77 1004.9
20260905042317 28 196 0.0 0.0 0.00 0.00 0.00 76 1004.6
20260905041812 28 203 1.6 1.6 0.00 0.00 0.00 76 1004.6
20260905041308 27 209 1.6 3.2 0.00 0.00 0.00 79 1004.7
20260905040803 27 197 0.0 0.0 0.00 0.00 0.00 81 1004.7
20260905040302 27 193 0.0 0.0 0.00 0.00 0.00 81 1004.8
20260905035756 27 194 0.0 0.0 0.00 0.00 0.00 80 1004.8
20260905035252 27 194 0.0 0.0 0.00 0.00 0.00 79 1004.8
20260905034749 27 195 0.0 0.0 0.00 0.00 0.00 78 1004.8
20260905034249 28 192 0.0 0.0 0.00 0.00 0.00 77 1004.9
20260905033747 28 192 0.0 0.0 0.00 0.00 0.00 76 1004.9
20260905033243 28 190 0.0 0.0 0.00 0.00 0.00 76 1005.0
20260905032742 28 202 0.0 0.0 0.00 0.00 0.00 77 1005.0
20260905032238 27 193 0.0 0.0 0.00 0.00 0.00 79 1005.0
20260905031733 27 192 0.0 0.0 0.00 0.00 0.00 79 1004.9
20260905031229 27 192 0.0 0.0 0.00 0.00 0.00 79 1005.1
20260905030724 27 191 0.0 0.0 0.00 0.00 0.00 79 1005.2
20260905030218 27 191 0.0 0.0 0.00 0.00 0.00 79 1005.3
20260905025713 27 191 0.0 0.0 0.00 0.00 0.00 78 1005.1
20260905025209 27 193 0.0 0.0 0.00 0.00 0.00 78 1005.1
20260905024705 28 193 0.0 0.0 0.00 0.00 0.00 77 1005.1
20260905024200 28 196 0.0 0.0 0.00 0.00 0.00 76 1005.2
20260905023654 28 193 0.0 0.0 0.00 0.00 0.00 75 1005.1
20260905023149 28 193 0.0 0.0 0.00 0.00 0.00 74 1005.2
20260905022648 28 193 0.0 0.0 0.00 0.00 0.00 73 1005.0
20260905022144 29 193 0.0 0.0 0.00 0.00 0.00 73 1005.0
20260905021643 30 191 0.0 0.0 0.00 0.00 0.00 69 1005.0
20260905021139 31 193 0.0 0.0 0.00 0.00 0.00 68 1005.1
20260905020634 31 196 0.0 1.6 0.00 0.00 0.00 66 1005.0
20260905020129 31 195 1.6 3.2 0.00 0.00 0.00 65 1004.9
20260905015627 31 193 0.0 1.6 0.00 0.00 0.00 65 1005.0
20260905015121 31 206 1.6 3.2 0.00 0.00 0.00 65 1004.9
20260905014615 30 193 1.6 3.2 0.00 0.00 0.00 67 1004.8
20260905014111 30 199 0.0 0.0 0.00 0.00 0.00 70 1004.9
20260905013608 30 188 1.6 4.8 0.00 0.00 0.00 68 1005.0
20260905013103 30 207 3.2 4.8 0.00 0.00 0.00 70 1004.9
20260905012603 30 197 0.0 0.0 0.00 0.00 0.00 71 1004.8
20260905012100 29 196 0.0 1.6 0.00 0.00 0.00 71 1004.7
20260905011555 30 192 0.0 0.0 0.00 0.00 0.00 71 1004.5
20260905011050 30 192 0.0 0.0 0.00 0.00 0.00 69 1004.6
20260905010550 30 192 0.0 0.0 0.00 0.00 0.00 68 1004.5
20260905010047 30 192 0.0 0.0 0.00 0.00 0.00 68 1004.4
20260905005542 30 194 0.0 0.0 0.00 0.00 0.00 68 1004.4
20260905005037 30 193 0.0 0.0 0.00 0.00 0.00 67 1004.4
20260905004532 30 190 0.0 0.0 0.00 0.00 0.00 67 1004.3